FREGAT DEB, 45641

Orbit data source: Space-Track

FREGAT DEB, 45641 is space debris in LEO originally from a launch on Mon, 18 Jul 2011 UTC launched from the Tyuratam Missile And Space Complex (TTMTR). Debris objects in space refer to the collection of defunct objects orbiting the Earth. Examples of debris include non-operational satellites, rocket bodies, and fragments generated from explosions, collisions, or faulty payload assembly.

Loading next visibility...
Identifier
45641, 2011-037AH
Orbit
LEO
Country
Flag of CISCIS
Related business
Manufacturer
Lavochkin
Mission
Spacecraft
Bus & Motor
Unknown
Mass
Unknown
Launch date (UTC)
2011-07-18 (14 years ago)
Launch vehicle
Unknown
Launch site
Tyuratam Missile And Space Complex (TTMTR)
Object type
Payload
Rocket body
Debris
Shape & HBR
Unknown
Radar Cross Section
Medium (>0.1 m² and <1 m²)

Expand to show TLE details & history
Last TLE update: 3 days ago

TLE from 3 days ago
0 FREGAT DEB
1 45641U 11037AH  25258.69665644  .00325162  00000-0  90121-2 0  9994
2 45641  51.6003 256.0225 0490890  59.0212 305.8016 14.64315937246433
Epoch: 2025-09-15T16:43Z
TLE epoch observation values (Epoch: 2025-09-15T16:43:11.116Z)
Latitude
-0°
Longitude
10.32858°
Altitude
488.995 km
Speed
7.724 km/s
True Right ascension
17h 04m 05s
True Declination
0° 00' 00"
Sunlit
Object was in daylight at epoch
Visualization orbit readout
Latitude
Unknown
Longitude
Unknown
Altitude
Unknown
Speed
Unknown
Apparent Right ascension
Unknown
Apparent Declination
Unknown
Sunlit
N/A
Visualization observer readout
Local Sidereal Time
09:18:38
Azimuth
Unknown
Elevation
Unknown
Doppler factor
Unknown
Orbital elements
Apogee altitude
1,026.235 km
Perigee altitude
333.304 km
Semi-major axis
7,057.907 km
Eccentricity
0.04909
Inclination
51.6003°
RAAN
256.0225°
Arg. of periapsis
59.0212°
True anomaly
301.0751°
Mean anomaly
305.8016°
Eccentric anomaly
303.455°
Mean motion
3.66041 °/min
Orbital period
98.35 mins
BSTAR
0.0090121
Loading maneuver chart data...
Computing Atmospheric mass density...
Loading historical data...
Loading historical data...
Loading historical data...
Loading historical data...
Loading historical data...
Loading historical data...
Loading historical data...

Documentation

Showing up to 5 results
|